Weather History for Dayton, OH

Change the Weather History Date:

Monday, February 10, 2014

  Actual Average Record
Temperature  
Mean Temperature 10 °F 30 °F  
Max Temperature 19 °F 37 °F 72 °F (1932)
Min Temperature 0 °F 22 °F -22 °F (1899)
Degree Days  
Heating Degree Days 55 35  
Month to date heating degree days 446 360  
Since 1 July heating degree days 3912 3683  
Cooling Degree Days 0 0  
Month to date cooling degree days 0 0  
Year to date cooling degree days 0 0  
Moisture  
Dew Point 2 °F    
Average Humidity 74    
Maximum Humidity 91    
Minimum Humidity 56    
Precipitation  
Precipitation 0.00 in 0.08 in 2.17 in (1959)
Month to date precipitation 1.00 0.81  
Year to date precipitation 3.84 3.52  
Snow  
Snow 0.00 in 0.20 in 2.50 in (1944)
Month to date snowfall 6.8 2.2  
Since 1 July snowfall 42.7 15.6  
Snow Depth 5.00 in    
Sea Level Pressure  
Sea Level Pressure 30.36 in    
Wind  
Wind Speed 6 mph (NW)    
Max Wind Speed 9 mph    
Max Gust Speed -    
Visibility 6 miles    
Events      
T = Trace of Precipitation, MM = Missing Value Source: NWS Daily Summary

Daily Weather History Graph

Daily Weather History Graph

Search for Another Location

Airport:

Trip Planner

Search our weather history database for the weather conditions in past years. The results will help you decide how hot, cold, wet, or windy it might be!

Date:

Astronomy

Feb. 10, 2014 Rise Set
Actual Time 7:35 AM EST 6:07 PM EST
Civil Twilight 7:07 AM EST 6:35 PM EST
Nautical Twilight 6:35 AM EST 7:06 PM EST
Astronomical Twilight 6:04 AM EST 7:38 PM EST
Moon 2:35 PM EST (2/10) 4:28 AM EST (2/10)
Length of Visible Light 11h 27m
Length of Day
10h 31m
Waxing Gibbous, 84% of the Moon is Illuminated
Feb 10
Waxing Gibbous
Feb 14
Full
Feb 22
Last Quarter
Mar 1
New
Mar 8
First Quarter

Hourly Weather History & Observations

Time (EST) Temp. Windchill Dew Point Humidity Pressure Visibility Wind Dir Wind Speed Gust Speed Precip Events Conditions
12:56 AM 9.0 °F -2.2 °F 5.0 °F 84% 30.27 in 7.0 mi WNW 6.9 mph - N/A   Scattered Clouds
1:56 AM 7.0 °F -6.6 °F 3.9 °F 87% 30.28 in 7.0 mi West 9.2 mph - N/A   Partly Cloudy
2:56 AM 7.0 °F -5.7 °F 3.0 °F 84% 30.29 in 6.0 mi WNW 8.1 mph - N/A   Clear
3:56 AM 5.0 °F -6.9 °F 1.0 °F 84% 30.28 in 6.0 mi NW 6.9 mph - N/A   Clear
4:56 AM 3.9 °F -8.2 °F 1.0 °F 88% 30.30 in 5.0 mi WNW 6.9 mph - N/A   Clear
5:56 AM 3.0 °F -9.3 °F -0.0 °F 87% 30.31 in 5.0 mi WNW 6.9 mph - N/A   Clear
6:56 AM 1.9 °F -9.2 °F -2.0 °F 83% 30.32 in 4.0 mi WNW 5.8 mph - N/A   Partly Cloudy
7:56 AM 1.0 °F -6.7 °F -2.9 °F 83% 30.34 in 2.5 mi NW 3.5 mph - N/A   Mostly Cloudy
8:54 AM 3.2 °F -7.8 °F -0.4 °F 85% 30.29 in 3.0 mi NW 5.8 mph - N/A   Mostly Cloudy
8:56 AM 3.9 °F -6.9 °F -0.0 °F 84% 30.36 in 3.0 mi NW 5.8 mph - N/A   Mostly Cloudy
9:56 AM 7.0 °F -1.7 °F 1.9 °F 80% 30.38 in 3.0 mi WNW 4.6 mph - N/A   Haze
10:56 AM 9.0 °F - 5.0 °F 84% 30.39 in 4.0 mi Calm Calm - N/A   Mostly Cloudy
11:56 AM 14.0 °F 6.5 °F 5.0 °F 67% 30.38 in 5.0 mi North 4.6 mph - 0.00 in   Haze
12:56 PM 17.1 °F 11.7 °F 5.0 °F 59% 30.37 in 6.0 mi NNW 3.5 mph - N/A   Haze
1:56 PM 18.0 °F 12.7 °F 6.1 °F 60% 30.36 in 7.0 mi NNW 3.5 mph - N/A   Partly Cloudy
2:56 PM 18.0 °F 8.7 °F 6.1 °F 60% 30.36 in 7.0 mi NNW 6.9 mph - N/A   Partly Cloudy
3:56 PM 17.1 °F 6.6 °F 5.0 °F 59% 30.38 in 9.0 mi NW 8.1 mph - N/A   Partly Cloudy
4:56 PM 16.0 °F 7.4 °F 5.0 °F 62% 30.38 in 8.0 mi NNW 5.8 mph - N/A   Partly Cloudy
5:56 PM 12.0 °F 2.7 °F 3.0 °F 67% 30.39 in 7.0 mi WNW 5.8 mph - N/A   Clear
6:56 PM 10.0 °F 0.4 °F 1.9 °F 70% 30.41 in 7.0 mi NW 5.8 mph - N/A   Clear
7:56 PM 7.0 °F -3.3 °F -0.0 °F 73% 30.43 in 7.0 mi NW 5.8 mph - N/A   Clear
8:56 PM 5.0 °F -6.9 °F -0.9 °F 76% 30.43 in 7.0 mi NW 6.9 mph - N/A   Clear
9:56 PM 3.9 °F -9.4 °F -2.9 °F 73% 30.45 in 9.0 mi NW 8.1 mph - N/A   Clear
10:56 PM 1.9 °F -10.6 °F -5.1 °F 72% 30.45 in 10.0 mi NW 6.9 mph - N/A   Clear
11:56 PM 1.0 °F -14.0 °F -5.1 °F 75% 30.44 in 9.0 mi NNW 9.2 mph - N/A   Clear